Weather History for Comanche, TX

Change the Weather History Date:

Sunday, March 24, 2013

  Actual Average (KSEP) Record (KSEP)
Temperature  
Mean Temperature 42 °F -  
Max Temperature 51 °F 71 °F 90 °F (1988)
Min Temperature 33 °F 43 °F 26 °F (1974)
Degree Days  
Heating Degree Days 23    
Moisture  
Dew Point 25 °F    
Average Humidity 53    
Maximum Humidity 87    
Minimum Humidity 28    
Precipitation  
Precipitation 0.00 in - - ()
Sea Level Pressure  
Sea Level Pressure 30.10 in    
Wind  
Wind Speed 19 mph (NNW)    
Max Wind Speed 30 mph    
Max Gust Speed 38 mph    
Visibility 10 miles    
Events      
Averages and records for this station are not official NWS values.
T = Trace of Precipitation, MM = Missing Value Source: NWS Daily Summary

Daily Weather History Graph

Daily Weather History Graph

Search for Another Location

Airport:

Trip Planner

Search our weather history database for the weather conditions in past years. The results will help you decide how hot, cold, wet, or windy it might be!

Date:

Astronomy

Mar. 24, 2013 Rise Set
Actual Time 7:32 AM CDT 7:48 PM CDT
Civil Twilight 7:08 AM CDT 8:13 PM CDT
Nautical Twilight 6:39 AM CDT 8:41 PM CDT
Astronomical Twilight 6:10 AM CDT 9:10 PM CDT
Moon 5:25 PM CDT (3/24) 5:35 AM CDT (3/24)
Length of Visible Light 13h 05m
Length of Day
12h 16m
Waxing Gibbous, 92% of the Moon is Illuminated
Mar 24
Waxing Gibbous
Mar 27
Full
Apr 2
Last Quarter
Apr 10
New
Apr 18
First Quarter

Hourly Weather History & Observations

Time (CDT) Temp. Windchill Dew Point Humidity Pressure Visibility Wind Dir Wind Speed Gust Speed Precip Events Conditions
12:15 AM 50.0 °F - 46.4 °F 87% 29.87 in 7.0 mi North 25.3 mph 29.9 mph N/A   Overcast
12:35 AM 50.0 °F - 44.6 °F 82% 29.89 in 10.0 mi North 20.7 mph 27.6 mph N/A   Overcast
12:55 AM 50.0 °F - 44.6 °F 82% 29.90 in 10.0 mi North 20.7 mph 29.9 mph N/A   Overcast
1:15 AM 48.2 °F - 42.8 °F 82% 29.92 in 10.0 mi North 20.7 mph 33.4 mph N/A   Overcast
1:35 AM 44.6 °F 35.3 °F 39.2 °F 81% 29.95 in 10.0 mi North 26.5 mph 34.5 mph N/A   Overcast
1:55 AM 42.8 °F 32.3 °F 37.4 °F 81% 29.96 in 10.0 mi North 29.9 mph 38.0 mph N/A   Overcast
2:15 AM 42.8 °F 34.3 °F 37.4 °F 81% 29.97 in 10.0 mi NNW 19.6 mph 32.2 mph N/A   Overcast
2:35 AM 42.8 °F 33.3 °F 37.4 °F 81% 29.99 in 10.0 mi North 24.2 mph 32.2 mph N/A   Overcast
3:15 AM 41.0 °F 31.1 °F 32.0 °F 70% 30.01 in 10.0 mi North 23.0 mph 36.8 mph N/A   Overcast
3:35 AM 41.0 °F 31.1 °F 32.0 °F 70% 30.02 in 10.0 mi NNW 23.0 mph 34.5 mph N/A   Mostly Cloudy
3:55 AM 39.2 °F 29.6 °F 30.2 °F 70% 30.03 in 10.0 mi NW 19.6 mph 27.6 mph N/A   Scattered Clouds
4:15 AM 37.4 °F 26.9 °F 28.4 °F 70% 30.04 in 10.0 mi NNW 20.7 mph 28.8 mph N/A   Scattered Clouds
4:35 AM 37.4 °F 28.5 °F 28.4 °F 70% 30.04 in 10.0 mi NNW 15.0 mph 25.3 mph N/A   Clear
4:55 AM 35.6 °F 23.4 °F 26.6 °F 70% 30.05 in 10.0 mi NNW 25.3 mph 35.7 mph N/A   Clear
5:15 AM 35.6 °F 25.5 °F 26.6 °F 70% 30.05 in 10.0 mi NNW 17.3 mph 24.2 mph N/A   Clear
5:35 AM 35.6 °F 26.2 °F 26.6 °F 70% 30.07 in 10.0 mi NW 15.0 mph 24.2 mph N/A   Clear
5:55 AM 33.8 °F 23.9 °F 26.6 °F 75% 30.08 in 10.0 mi NW 15.0 mph 24.2 mph N/A   Clear
6:15 AM 33.8 °F 22.8 °F 26.6 °F 75% 30.09 in 10.0 mi NNW 18.4 mph 25.3 mph N/A   Clear
6:35 AM 33.8 °F 22.2 °F 26.6 °F 75% 30.11 in 10.0 mi NNW 20.7 mph 27.6 mph N/A   Clear
6:55 AM 33.8 °F 24.3 °F 26.6 °F 75% 30.11 in 10.0 mi NNW 13.8 mph 24.2 mph N/A   Clear
7:15 AM 33.8 °F 24.8 °F 26.6 °F 75% 30.11 in 10.0 mi NW 12.7 mph 17.3 mph N/A   Clear
7:35 AM 33.8 °F 22.5 °F 26.6 °F 75% 30.12 in 10.0 mi NW 19.6 mph 23.0 mph N/A   Clear
7:55 AM 33.8 °F 22.5 °F 24.8 °F 70% 30.14 in 10.0 mi NW 19.6 mph 27.6 mph N/A   Clear
8:15 AM 33.8 °F 22.5 °F 24.8 °F 70% 30.14 in 10.0 mi NNW 19.6 mph 29.9 mph N/A   Clear
8:35 AM 33.8 °F 22.5 °F 24.8 °F 70% 30.16 in 10.0 mi NW 19.6 mph 32.2 mph N/A   Clear
8:55 AM 33.8 °F 21.9 °F 24.8 °F 70% 30.17 in 10.0 mi NW 21.9 mph 28.8 mph N/A   Scattered Clouds
9:15 AM 33.8 °F 22.5 °F 24.8 °F 70% 30.18 in 10.0 mi NNW 19.6 mph 29.9 mph N/A   Scattered Clouds
9:35 AM 35.6 °F 24.5 °F 24.8 °F 65% 30.19 in 10.0 mi NNW 20.7 mph 28.8 mph N/A   Scattered Clouds
9:55 AM 35.6 °F 24.8 °F 23.0 °F 60% 30.19 in 10.0 mi NNW 19.6 mph 28.8 mph N/A   Clear
10:15 AM 37.4 °F 28.2 °F 23.0 °F 56% 30.19 in 10.0 mi NNW 16.1 mph 25.3 mph N/A   Clear
10:35 AM 37.4 °F 26.9 °F 23.0 °F 56% 30.20 in 10.0 mi NW 20.7 mph 33.4 mph N/A   Scattered Clouds
10:55 AM 39.2 °F 29.3 °F 23.0 °F 52% 30.20 in 10.0 mi NNW 20.7 mph 29.9 mph N/A   Scattered Clouds
11:15 AM 39.2 °F 29.6 °F 23.0 °F 52% 30.20 in 10.0 mi NW 19.6 mph 29.9 mph N/A   Scattered Clouds
11:35 AM 41.0 °F 31.9 °F 23.0 °F 49% 30.21 in 10.0 mi North 19.6 mph 27.6 mph N/A   Clear
12:15 PM 42.8 °F 34.8 °F 23.0 °F 46% 30.20 in 10.0 mi NW 17.3 mph 26.5 mph N/A   Clear
12:35 PM 42.8 °F 34.5 °F 23.0 °F 46% 30.19 in 10.0 mi North 18.4 mph 28.8 mph N/A   Clear
12:55 PM 44.6 °F 38.4 °F 23.0 °F 43% 30.19 in 10.0 mi NNW 12.7 mph 25.3 mph N/A   Clear
1:15 PM 44.6 °F 37.2 °F 23.0 °F 43% 30.18 in 10.0 mi North 17.3 mph 29.9 mph N/A   Clear
1:35 PM 46.4 °F 40.4 °F 23.0 °F 40% 30.18 in 10.0 mi NW 13.8 mph 25.3 mph N/A   Clear
1:55 PM 46.4 °F 39.2 °F 23.0 °F 40% 30.17 in 10.0 mi NNW 18.4 mph 26.5 mph N/A   Clear
2:15 PM 48.2 °F - 23.0 °F 37% 30.16 in 10.0 mi NNW 21.9 mph 27.6 mph N/A   Clear
2:55 PM 50.0 °F - 21.2 °F 32% 30.14 in 10.0 mi NNW 17.3 mph 26.5 mph N/A   Clear
3:15 PM 50.0 °F - 21.2 °F 32% 30.13 in 10.0 mi NNW 17.3 mph 27.6 mph N/A   Clear
3:35 PM 50.0 °F - 21.2 °F 32% 30.12 in 10.0 mi North 23.0 mph 27.6 mph N/A   Clear
3:55 PM 51.8 °F - 21.2 °F 30% 30.11 in 10.0 mi NW 19.6 mph 24.2 mph N/A   Clear
4:15 PM 51.8 °F - 21.2 °F 30% 30.10 in 10.0 mi North 13.8 mph 25.3 mph N/A   Clear
4:35 PM 51.8 °F - 21.2 °F 30% 30.09 in 10.0 mi NNW 15.0 mph 25.3 mph N/A   Clear
4:55 PM 51.8 °F - 21.2 °F 30% 30.09 in 10.0 mi NNW 18.4 mph 26.5 mph N/A   Clear
5:15 PM 51.8 °F - 21.2 °F 30% 30.08 in 10.0 mi North 17.3 mph 24.2 mph N/A   Clear
5:35 PM 51.8 °F - 19.4 °F 28% 30.08 in 10.0 mi North 15.0 mph 26.5 mph N/A   Clear
5:55 PM 51.8 °F - 19.4 °F 28% 30.07 in 10.0 mi North 13.8 mph 19.6 mph N/A   Clear
6:15 PM 50.0 °F - 19.4 °F 30% 30.07 in 10.0 mi North 18.4 mph 21.9 mph N/A   Clear
6:35 PM 50.0 °F - 19.4 °F 30% 30.08 in 10.0 mi North 15.0 mph 24.2 mph N/A   Clear
6:55 PM 50.0 °F - 17.6 °F 28% 30.08 in 10.0 mi North 15.0 mph 23.0 mph N/A   Clear
7:15 PM 48.2 °F - 17.6 °F 30% 30.08 in 10.0 mi North 13.8 mph - N/A   Clear
7:35 PM 46.4 °F 40.4 °F 17.6 °F 32% 30.09 in 10.0 mi North 13.8 mph - N/A   Clear
7:55 PM 44.6 °F 39.7 °F 17.6 °F 34% 30.09 in 10.0 mi NNE 9.2 mph - N/A   Clear
8:15 PM 42.8 °F 37.5 °F 17.6 °F 36% 30.10 in 10.0 mi North 9.2 mph - N/A   Clear
8:35 PM 42.8 °F 38.0 °F 17.6 °F 36% 30.11 in 10.0 mi North 8.1 mph - N/A   Clear
8:55 PM 41.0 °F 36.4 °F 17.6 °F 39% 30.12 in 10.0 mi North 6.9 mph - N/A   Clear
9:15 PM 41.0 °F 36.4 °F 17.6 °F 39% 30.13 in 10.0 mi North 6.9 mph - N/A   Clear
9:35 PM 39.2 °F 34.2 °F 17.6 °F 42% 30.14 in 10.0 mi North 6.9 mph - N/A   Clear
9:55 PM 41.0 °F 39.0 °F 15.8 °F 36% 30.15 in 10.0 mi North 3.5 mph - N/A   Clear
10:15 PM 41.0 °F 38.0 °F 15.8 °F 36% 30.15 in 10.0 mi North 4.6 mph - N/A   Clear
10:35 PM 39.2 °F 34.2 °F 17.6 °F 42% 30.16 in 10.0 mi North 6.9 mph - N/A   Clear
10:55 PM 37.4 °F 32.1 °F 17.6 °F 45% 30.16 in 10.0 mi North 6.9 mph - N/A   Clear
11:15 PM 35.6 °F 29.9 °F 17.6 °F 48% 30.16 in 10.0 mi North 6.9 mph - N/A   Clear
11:35 PM 35.6 °F 29.2 °F 17.6 °F 48% 30.17 in 10.0 mi North 8.1 mph - N/A   Clear
11:55 PM 35.6 °F 30.7 °F 17.6 °F 48% 30.16 in 10.0 mi NNE 5.8 mph - N/A   Clear